Terminal Aerodrome Forecast
Issued by NWS Cleveland, OH

Home | Current Version | Previous Version | Graphics & Text | Print | Product List | Glossary On
Versions: 1 2 3 4 5 6 7 8 9 10 11 12 13
577
FTUS41 KCLE 210250 AAA
TAFMFD
TAF AMD
KMFD 210250Z 2103/2124 23012G20KT P6SM VCSH SCT050 OVC100
      TEMPO 2103/2105 VRB20G35KT 2SM TSRA SCT025CB OVC050
     FM210500 27012KT P6SM SCT025 BKN050
     FM211000 27012G20KT P6SM SCT006 OVC015
     FM212100 30012KT P6SM OVC025=

USA.gov is the U.S. government's official web portal to all federal, state and local government web resources and services.